Wind_Speed
4 11 11 12 14 15 6 9 2 9 4 9 8 5 6 1 3 2 1 3 3 5 6 6 7 8 4 8 9 12 15 17 19 19 20 23 22 22 24 24 27 28 31 33
8 11 15 16 8 5 7 3 5 8 6 10 9 6 2 2 4 2 2 2 4 4 5 7 9 6 7 9 16 16 19 22 20 20 21 20 19 20 24 26 29 33 36 38
10 11 8 11 11 6 3 2 10 20 17 10 12 10 11 4 5 4 4 3 5 7 8 14 18 18 16 16 18 20 20 19 16 17 16 17 20 23 28 32 34 38 42 44
16 6 9 17 13 7 9 4 21 10 13 11 14 13 19 21 14 16 10 9 8 9 9 11 16 24 22 22 22 19 18 16 14 15 19 23 26 30 33 37 40 44 46 49
7 11 20 17 14 5 4 9 4 8 5 10 10 17 24 23 20 22 19 9 13 18 17 13 13 20 24 24 20 16 15 15 17 20 25 30 33 36 39 42 44 48 50 51
7 10 19 9 8 5 1 4 8 12 15 17 9 14 7 18 10 16 20 2 16 20 19 16 13 14 17 23 18 16 17 18 24 28 31 35 38 41 45 49 51 54 56 56
10 13 6 9 1 4 12 11 16 17 14 10 11 10 10 16 14 13 12 11 12 21 20 17 13 11 10 13 17 19 22 22 27 32 35 39 43 46 50 53 55 56 57 57
13 8 9 9 10 15 13 14 17 17 14 20 11 13 7 13 15 13 16 11 9 11 15 14 12 11 13 17 20 23 27 27 30 35 39 43 46 49 52 54 54 55 56 58
17 20 21 19 23 18 16 19 16 16 11 9 4 12 16 12 17 14 11 11 11 12 13 14 15 15 18 21 24 28 32 33 35 37 41 45 48 50 52 53 54 55 56 57
22 22 15 21 12 13 12 11 5 13 12 8 10 14 14 14 15 12 12 13 14 15 16 18 20 21 23 25 28 31 35 38 40 42 45 47 50 50 51 53 52 55 56 57
24 27 21 27 18 15 10 13 14 15 15 12 9 15 15 13 12 17 17 15 16 19 20 22 24 25 28 30 32 36 40 44 45 44 45 49 51 50 52 53 56 57 48 60
25 21 29 4 11 10 10 14 16 17 13 19 14 14 22 15 20 21 22 21 19 21 24 26 28 30 32 35 38 38 41 45 47 48 48 51 51 48 53 56 57 56 51 58
20 24 23 19 10 9 14 16 18 19 21 18 20 12 18 22 26 28 31 27 26 26 29 30 34 36 38 42 39 41 45 47 46 50 50 50 46 54 56 58 57 55 56 59
21 24 22 19 19 18 19 19 17 21 26 23 21 15 17 23 25 31 34 32 28 25 33 37 39 42 46 41 42 45 48 49 51 52 52 54 56 56 58 56 56 57 59 61
23 22 21 22 22 22 26 22 17 21 17 20 13 18 16 20 27 30 34 34 33 37 40 43 46 45 40 39 43 45 48 51 54 53 55 57 56 56 55 58 59 59 59 61
24 23 24 25 24 24 26 22 20 24 22 21 19 18 17 25 30 33 35 36 38 41 44 46 50 49 49 41 42 45 54 55 53 55 55 56 54 55 58 60 60 59 63 64
25 25 26 27 26 27 28 19 24 22 22 22 24 25 26 28 31 34 35 35 36 41 44 47 50 49 51 52 40 51 53 52 52 53 53 53 55 57 57 59 58 67 72 79
26 27 27 24 25 28 21 24 20 21 22 24 25 25 25 26 29 32 37 40 42 43 45 46 48 50 51 50 49 51 50 50 52 53 54 55 55 56 57 60 62 66 68 81
24 24 25 25 25 25 23 21 17 22 23 23 23 24 27 28 32 34 36 38 42 44 48 50 51 49 48 48 47 47 50 52 54 55 55 56 56 56 62 69 69 68 74 75
25 22 25 24 25 24 22 22 19 23 26 22 24 26 28 30 32 34 38 41 44 47 48 47 46 45 45 46 49 50 51 52 53 54 56 57 60 58 61 70 72 73 76 81
26 26 24 24 23 23 20 18 21 25 25 22 24 25 28 31 34 37 41 45 47 47 47 47 46 46 48 48 49 50 51 53 54 55 58 62 64 64 68 73 76 79 78 80
26 25 22 21 19 20 19 19 20 20 21 24 27 29 32 35 38 43 44 45 44 45 48 49 50 50 51 51 52 52 53 55 57 60 63 64 65 68 68 72 74 76 77 78
26 24 22 21 19 19 19 18 17 20 25 28 30 33 36 39 42 45 46 47 46 45 46 47 49 50 52 53 53 54 56 60 64 66 68 68 69 70 71 71 73 77 77 71
19 19 18 19 19 20 20 22 23 26 30 32 35 38 41 43 45 46 46 47 48 49 49 50 51 51 51 52 54 57 61 64 65 65 66 69 71 71 71 73 75 71 67 66
19 20 19 22 23 24 26 28 29 32 34 37 40 42 44 45 45 46 47 48 49 51 52 53 53 51 52 56 60 62 63 62 64 65 67 69 71 72 72 69 65 66 70 71
24 22 24 25 27 30 33 35 36 39 41 43 44 45 46 47 47 48 48 49 51 52 52 51 52 55 59 61 61 61 61 62 65 67 69 70 69 67 64 64 64 69 73 72
Wind_Direction
197 163 178 201 199 203 90 148 109 131 113 318 294 165 144 198 54 50 58 200 198 186 211 216 215 179 243 297 302 309 312 316 315 306 297 297 300 298 305 311 316 317 313 315
215 203 187 218 217 140 128 341 300 169 181 261 271 277 170 326 312 85 95 344 336 340 346 322 311 315 317 314 314 315 307 308 309 304 301 300 306 312 311 309 314 311 311 313
231 189 253 154 162 140 49 110 162 170 192 227 182 193 272 235 264 335 319 325 319 320 345 326 317 314 315 316 310 304 302 302 300 304 308 308 308 310 309 311 311 308 309 310
257 299 187 145 132 177 289 320 196 201 180 203 204 218 237 246 251 291 288 289 302 291 297 307 303 304 313 317 313 303 304 306 304 309 306 306 309 308 309 309 310 309 308 306
247 283 145 159 160 202 281 308 179 178 240 226 239 255 236 255 256 256 262 322 339 328 320 313 309 297 306 311 308 301 303 305 306 303 305 306 310 308 308 307 305 302 304 306
263 226 175 156 170 198 317 331 179 220 222 244 242 295 234 254 278 297 308 1 318 315 320 328 323 300 294 294 303 301 305 313 310 308 307 306 306 306 306 305 307 308 310 310
220 185 222 155 101 261 282 247 209 224 230 215 226 254 304 302 316 312 330 341 315 315 318 318 326 314 308 293 298 305 307 308 304 303 304 306 306 307 307 308 309 310 310 310
200 208 219 185 195 245 246 225 218 245 254 202 195 273 274 276 302 320 325 320 305 300 308 314 315 310 301 301 303 303 302 303 302 304 305 305 306 306 306 307 308 308 309 310
218 216 218 204 216 212 232 215 230 244 247 230 210 273 277 285 296 296 308 309 315 298 288 291 296 303 304 304 304 300 300 303 305 308 306 306 306 305 304 306 306 307 308 308
225 247 244 257 200 226 215 237 265 258 264 240 216 228 267 255 267 279 298 296 284 282 289 295 300 299 298 298 299 301 303 306 308 310 307 305 302 302 304 305 303 307 306 307
225 238 252 253 234 223 201 233 249 257 262 262 211 239 250 248 241 263 272 278 279 280 286 289 291 294 297 300 304 305 305 307 309 307 304 303 303 303 303 305 305 305 297 295
232 230 248 206 184 212 266 261 254 257 252 264 258 241 250 262 267 267 271 275 276 282 288 291 292 296 300 302 303 302 303 306 309 308 307 304 305 300 303 303 306 305 302 301
230 240 236 242 224 230 242 249 255 270 272 264 270 265 246 250 258 264 267 273 283 290 291 294 297 299 301 304 298 300 301 308 308 308 306 303 295 301 301 304 304 303 303 303
225 230 235 244 242 252 249 237 250 258 258 269 273 253 249 259 259 264 269 275 278 290 297 298 301 306 312 306 303 300 302 302 303 305 302 299 301 302 304 304 303 304 304 306
228 229 235 242 245 242 255 261 256 266 277 273 260 255 254 256 260 270 280 291 303 307 305 305 306 309 304 301 293 291 293 296 303 303 302 302 303 304 304 303 305 305 306 306
233 237 242 245 249 256 263 271 273 270 275 274 275 266 256 251 255 263 276 291 300 301 298 300 301 301 300 294 286 290 297 303 303 301 301 303 306 306 304 304 304 304 307 305
238 245 249 255 257 260 262 271 255 260 257 258 256 255 252 255 265 275 283 285 283 283 287 289 292 296 299 301 290 295 303 302 301 301 302 305 303 303 304 306 306 306 304 301
246 250 252 253 255 259 262 256 256 253 252 254 260 267 272 277 274 273 278 285 289 290 292 294 296 297 300 301 300 302 302 300 301 302 303 303 303 305 307 307 305 304 301 303
248 249 254 253 254 258 259 254 249 250 250 254 262 270 274 274 278 282 285 288 290 292 294 296 300 302 302 303 303 299 299 301 303 303 304 305 307 306 305 305 304 303 301 303
250 250 253 256 258 258 249 257 255 251 255 261 266 267 270 277 279 283 286 288 291 295 299 301 303 304 302 300 299 300 301 301 303 304 305 305 306 305 299 298 299 301 301 302
244 249 249 252 255 258 258 248 250 255 264 268 267 273 277 282 286 288 291 295 297 301 302 303 301 299 300 301 300 300 302 303 304 305 304 303 304 301 298 300 302 303 304 304
239 247 248 251 254 255 256 253 253 259 270 275 278 282 288 290 291 292 296 301 304 302 301 303 304 303 303 304 303 301 302 304 305 305 305 305 300 299 300 300 302 304 303 299
236 241 245 249 251 252 251 258 269 280 277 280 283 288 292 293 295 300 301 300 300 301 301 301 301 301 302 303 303 303 304 305 307 307 306 304 304 304 304 303 302 302 307 313
226 232 237 244 249 260 270 276 281 287 284 287 291 292 295 297 299 300 300 300 301 302 300 300 301 302 302 302 303 305 306 306 306 306 306 305 305 305 304 304 307 310 313 317
233 240 246 258 267 272 276 281 286 287 288 291 293 296 298 299 299 299 299 300 300 300 301 302 303 302 302 304 305 307 307 308 308 309 308 307 306 306 306 309 313 315 317 317
245 251 257 265 273 279 285 288 291 292 292 294 296 298 299 300 300 299 299 299 300 301 303 303 302 303 306 307 307 308 310 309 310 310 310 308 307 307 310 312 314 316 316 316
Height
5756 5757 5761 5763 5765 5767 5770 5771 5775 5776 5779 5783 5783 5784 5785 5787 5787 5788 5789 5792 5793 5794 5794 5795 5794 5797 5795 5794 5794 5793 5792 5791 5792 5791 5791 5790 5788 5787 5785 5782 5779 5778 5776 5773
5759 5759 5758 5763 5766 5769 5768 5768 5769 5775 5777 5784 5783 5784 5784 5783 5784 5786 5787 5789 5790 5791 5792 5791 5790 5792 5792 5792 5789 5790 5788 5788 5789 5787 5787 5785 5783 5781 5779 5776 5774 5771 5766 5763
5756 5758 5759 5761 5766 5768 5769 5771 5772 5773 5777 5781 5781 5783 5783 5785 5785 5786 5786 5786 5786 5786 5788 5789 5787 5787 5789 5789 5788 5787 5786 5786 5786 5784 5781 5779 5779 5777 5773 5770 5768 5763 5759 5756
5756 5759 5760 5761 5764 5765 5767 5770 5772 5777 5778 5780 5780 5781 5780 5781 5784 5782 5784 5784 5783 5784 5787 5789 5788 5783 5785 5785 5785 5784 5783 5782 5780 5778 5776 5775 5774 5771 5768 5764 5760 5756 5751 5747
5756 5758 5758 5761 5763 5764 5768 5771 5773 5774 5774 5776 5777 5781 5781 5779 5780 5781 5781 5780 5779 5779 5779 5781 5783 5781 5780 5781 5781 5780 5779 5777 5774 5774 5772 5769 5767 5764 5761 5758 5754 5750 5744 5738
5755 5756 5759 5762 5763 5767 5770 5772 5772 5771 5772 5772 5778 5778 5775 5776 5779 5776 5779 5777 5775 5773 5775 5775 5777 5778 5778 5777 5776 5775 5773 5772 5769 5768 5766 5763 5761 5757 5752 5747 5742 5735 5728 5723
5755 5758 5756 5761 5762 5764 5768 5770 5769 5770 5770 5772 5773 5770 5772 5773 5775 5776 5775 5775 5774 5771 5771 5773 5774 5774 5774 5774 5773 5771 5769 5770 5767 5763 5760 5756 5751 5745 5740 5734 5728 5721 5716 5711
5753 5754 5754 5757 5760 5764 5765 5766 5766 5765 5767 5767 5768 5766 5768 5768 5768 5769 5770 5772 5773 5772 5770 5770 5772 5772 5772 5770 5768 5766 5764 5764 5761 5756 5752 5747 5741 5736 5730 5724 5718 5712 5707 5700
5750 5751 5754 5755 5756 5757 5761 5762 5764 5764 5766 5767 5767 5766 5762 5765 5764 5766 5768 5768 5767 5769 5771 5771 5771 5769 5767 5765 5762 5761 5757 5755 5752 5748 5743 5738 5732 5726 5720 5714 5709 5703 5696 5690
5749 5748 5750 5749 5753 5756 5757 5761 5760 5762 5763 5764 5765 5763 5761 5762 5764 5764 5764 5765 5767 5767 5766 5765 5764 5764 5763 5761 5759 5754 5749 5746 5743 5739 5734 5729 5723 5717 5711 5705 5699 5692 5685 5677
5745 5747 5750 5748 5751 5756 5755 5757 5758 5759 5760 5760 5761 5760 5759 5760 5762 5761 5761 5763 5763 5763 5762 5761 5760 5759 5756 5754 5750 5745 5740 5736 5733 5730 5725 5718 5711 5705 5698 5692 5686 5679 5673 5665
5740 5744 5743 5748 5749 5751 5753 5754 5756 5755 5757 5754 5756 5759 5756 5756 5756 5756 5755 5756 5758 5757 5755 5754 5752 5751 5748 5745 5742 5737 5732 5727 5722 5717 5711 5704 5698 5692 5686 5680 5674 5667 5661 5653
5738 5739 5742 5747 5746 5747 5749 5750 5750 5750 5749 5751 5751 5754 5752 5752 5751 5751 5749 5750 5750 5750 5748 5746 5743 5741 5739 5735 5730 5725 5720 5716 5711 5705 5699 5693 5687 5681 5674 5668 5661 5654 5648 5640
5734 5735 5739 5741 5743 5744 5743 5745 5746 5746 5744 5746 5745 5747 5747 5746 5746 5743 5743 5743 5743 5742 5739 5736 5733 5729 5724 5720 5715 5711 5709 5704 5700 5695 5688 5682 5676 5669 5661 5654 5648 5641 5633 5625
5729 5731 5734 5737 5738 5738 5736 5738 5740 5739 5739 5739 5741 5740 5742 5741 5738 5735 5734 5734 5734 5733 5730 5727 5723 5720 5716 5713 5709 5705 5700 5694 5689 5682 5675 5667 5662 5656 5649 5641 5633 5625 5618 5610
5726 5727 5729 5730 5732 5732 5732 5733 5735 5734 5735 5734 5735 5736 5737 5733 5731 5730 5730 5730 5728 5725 5722 5719 5714 5711 5709 5705 5701 5695 5689 5682 5676 5669 5662 5656 5650 5642 5634 5627 5620 5612 5603 5595
5721 5722 5723 5724 5725 5725 5725 5729 5727 5728 5728 5728 5728 5727 5728 5728 5727 5727 5728 5727 5726 5722 5718 5712 5706 5702 5698 5693 5689 5682 5677 5671 5664 5656 5649 5643 5636 5629 5621 5613 5605 5598 5590 5581
5715 5716 5716 5718 5717 5717 5720 5720 5722 5721 5721 5721 5723 5723 5724 5724 5724 5721 5719 5717 5714 5710 5706 5702 5697 5691 5686 5681 5676 5671 5664 5657 5651 5644 5638 5632 5625 5616 5608 5600 5592 5584 5574 5564
5708 5709 5709 5710 5711 5713 5713 5714 5716 5714 5716 5717 5718 5718 5716 5716 5714 5712 5710 5708 5703 5699 5695 5690 5685 5681 5675 5669 5664 5657 5650 5644 5638 5632 5625 5618 5610 5603 5595 5585 5576 5566 5557 5546
5701 5703 5703 5704 5705 5705 5707 5708 5710 5708 5709 5712 5712 5711 5710 5709 5707 5704 5701 5697 5693 5689 5684 5679 5674 5668 5662 5656 5650 5644 5638 5632 5626 5620 5612 5605 5598 5590 5582 5570 5560 5550 5541 5530
5694 5695 5697 5697 5697 5699 5701 5703 5703 5703 5706 5705 5704 5704 5702 5699 5697 5693 5689 5684 5682 5678 5672 5666 5661 5656 5651 5645 5639 5632 5626 5619 5613 5606 5599 5591 5583 5575 5565 5555 5544 5534 5523 5513
5688 5689 5691 5692 5693 5694 5695 5696 5698 5699 5699 5697 5695 5694 5692 5689 5685 5680 5677 5675 5671 5664 5658 5653 5648 5642 5637 5632 5626 5620 5614 5607 5600 5592 5584 5575 5567 5557 5548 5538 5527 5517 5507 5498
5683 5685 5686 5687 5688 5688 5688 5691 5693 5693 5690 5688 5687 5685 5682 5678 5674 5670 5666 5662 5659 5655 5649 5643 5636 5630 5625 5619 5613 5606 5600 5593 5585 5576 5567 5558 5549 5540 5529 5520 5510 5501 5489 5480
5678 5679 5680 5681 5682 5682 5684 5684 5684 5683 5681 5679 5677 5674 5670 5667 5663 5658 5653 5649 5645 5641 5636 5631 5624 5618 5613 5606 5600 5594 5586 5578 5570 5561 5551 5542 5532 5522 5512 5502 5492 5482 5473 5464
5673 5673 5674 5674 5675 5676 5676 5676 5676 5674 5672 5669 5666 5662 5659 5655 5651 5647 5641 5636 5631 5627 5623 5617 5611 5605 5599 5593 5586 5578 5571 5563 5553 5544 5535 5525 5515 5505 5496 5486 5476 5466 5456 5448
5666 5668 5668 5669 5669 5668 5667 5666 5664 5661 5659 5658 5654 5651 5647 5643 5639 5634 5629 5624 5619 5614 5609 5603 5598 5592 5585 5577 5570 5563 5555 5546 5537 5527 5517 5507 5498 5489 5480 5472 5464 5452 5441 5432